LA6JKA Spydeberg NO current weather conditions

sailwx.info

Wind from 215 at 1 knots gusting 2

Air temperature 2.8° C
Dewpoint 2.5° C

Last reported at 2019-Dec-06 08:00 UTC.
Time now 2019-Dec-06 08:26 UTC

Location: N 59°37' E 011°06'.
View on Google Maps.

See reports from other nearby stations

  
Tides and Currents Weather Stations Pressure Air Temp Water Temp Dewpoint Dewpoint Depression Visibility Wind Speed Wind Dir Waves Ship Positions
date/time (UTC)wind fromknots sea level pressurealtimeterstation pressurevisibilityair tempwater tempwave heightnotes
2019-Dec-06 08:00 215 1 gusting 2 2.8
2019-Dec-06 07:46 221 3.3
2019-Dec-06 07:30 221 3.3
2019-Dec-06 07:16 221 3.9
2019-Dec-06 07:01 233 3.9
2019-Dec-06 06:45 227 1 gusting 3 4.4
2019-Dec-06 06:31 215 2 gusting 6 4.4
2019-Dec-06 06:15 229 1 gusting 4 5.0
2019-Dec-06 06:00 255 0 gusting 7 5.6
2019-Dec-06 05:45 257 2 gusting 6 5.6
2019-Dec-06 05:30 240 2 gusting 4 6.1
2019-Dec-06 05:15 229 1 gusting 6 6.1
2019-Dec-06 05:01 243 1 gusting 4 6.7
2019-Dec-06 04:45 258 6.7
2019-Dec-06 04:30 235 6.7
2019-Dec-06 04:15 250 0 gusting 3 6.7
2019-Dec-06 04:00 254 0 gusting 6 7.2
2019-Dec-06 03:46 240 1 gusting 6 7.2
2019-Dec-06 03:30 236 3 gusting 6 6.7
2019-Dec-06 03:16 227 1 gusting 9 6.7
2019-Dec-06 03:00 180 4 gusting 8 6.7
2019-Dec-06 02:45 248 4 gusting 9 6.7
2019-Dec-06 02:30 232 4 gusting 8 6.7
2019-Dec-06 02:15 197 3 gusting 6 6.1
2019-Dec-06 02:00 178 3 gusting 8 6.1
2019-Dec-06 01:47 194 2 gusting 9 6.1
2019-Dec-06 01:31 215 5 gusting 9 6.1
2019-Dec-06 01:17 244 6 gusting 14 6.1
2019-Dec-06 01:01 219 6 gusting 14 6.1
2019-Dec-06 00:46 184 6 gusting 17 6.1
2019-Dec-06 00:31 163 6 gusting 13 6.1
2019-Dec-06 00:16 178 7 gusting 13 6.1
2019-Dec-06 00:01 239 6 gusting 13 6.1
2019-Dec-05 23:46 238 6 gusting 17 6.1
2019-Dec-05 23:31 163 5 gusting 13 6.1
2019-Dec-05 23:16 180 6 gusting 17 6.1
2019-Dec-05 23:00 225 6 gusting 13 6.1
2019-Dec-05 22:45 217 8 gusting 19 6.1
2019-Dec-05 22:30 182 9 gusting 19 6.1
2019-Dec-05 22:15 225 9 gusting 26 6.7
2019-Dec-05 22:00 271 7 gusting 19 6.7
2019-Dec-05 21:46 225 9 gusting 19 6.7
2019-Dec-05 21:31 242 13 gusting 24 7.2
2019-Dec-05 21:15 172 12 gusting 23 7.2
2019-Dec-05 21:00 163 13 gusting 24 7.2
2019-Dec-05 20:45 188 11 gusting 23 7.2
2019-Dec-05 20:30 184 12 gusting 26 7.2
2019-Dec-05 20:15 212 9 gusting 23 7.2
2019-Dec-05 20:00 248 13 gusting 23 6.7
2019-Dec-05 19:45 184 10 gusting 19 6.7
2019-Dec-05 19:30 192 11 gusting 24 6.7
2019-Dec-05 19:15 184 12 gusting 25 7.2
2019-Dec-05 19:02 240 11 gusting 20 6.7
2019-Dec-05 18:47 207 9 gusting 21 6.7
2019-Dec-05 18:32 192 9 gusting 24 6.7
2019-Dec-05 18:16 238 9 gusting 23 6.7
2019-Dec-05 18:02 239 8 gusting 21 6.7
2019-Dec-05 17:46 217 11 gusting 24 6.7
2019-Dec-05 17:31 249 11 gusting 22 6.7
2019-Dec-05 17:16 222 12 gusting 21 6.7
2019-Dec-05 17:01 200 10 gusting 28 6.7
2019-Dec-05 16:47 230 11 gusting 23 6.7
2019-Dec-05 16:32 209 13 gusting 23 6.7
2019-Dec-05 16:16 246 14 gusting 22 6.7
2019-Dec-05 16:01 194 12 gusting 26 6.7
2019-Dec-05 15:45 243 9 gusting 26 6.7
2019-Dec-05 15:31 189 9 gusting 21 6.1
2019-Dec-05 15:16 246 13 gusting 25 6.1
2019-Dec-05 15:02 195 13 gusting 26 6.1
2019-Dec-05 14:46 227 12 gusting 26 6.1
2019-Dec-05 14:31 205 10 gusting 21 6.1
2019-Dec-05 14:16 216 10 gusting 20 6.1
2019-Dec-05 14:00 207 11 gusting 23 6.1
2019-Dec-05 13:46 196 13 gusting 23 6.1
2019-Dec-05 13:30 178 10 gusting 20 6.1
2019-Dec-05 13:16 202 10 gusting 20 6.1
2019-Dec-05 13:00 198 11 gusting 19 6.1
2019-Dec-05 12:45 225 11 gusting 21 6.1
2019-Dec-05 12:30 242 10 gusting 20 6.1
2019-Dec-05 12:15 208 10 gusting 21 6.1
2019-Dec-05 12:00 213 10 gusting 25 6.1
2019-Dec-05 11:45 191 11 gusting 23 5.6
2019-Dec-05 11:30 171 13 gusting 22 5.6
2019-Dec-05 11:15 234 9 gusting 17 5.6
2019-Dec-05 11:00 217 12 gusting 21 5.6
2019-Dec-05 10:45 200 10 gusting 19 5.6
2019-Dec-05 10:30 201 11 gusting 25 5.6
2019-Dec-05 10:15 211 7 gusting 17 5.6
2019-Dec-05 10:01 238 9 gusting 21 5.6
2019-Dec-05 09:46 211 8 gusting 19 5.0
2019-Dec-05 09:33 230 7 gusting 16 5.0
2019-Dec-05 09:16 209 8 gusting 19 5.0
2019-Dec-05 09:01 211 8 gusting 17 5.0
2019-Dec-05 08:46 207 8 gusting 14 5.0
2019-Dec-05 08:31 219 9 gusting 21 5.0
2019-Dec-05 08:16 223 8 gusting 17 5.0
2019-Dec-05 08:02 243 9 gusting 17 4.4
2019-Dec-05 07:46 220 6 gusting 19 4.4
2019-Dec-05 07:31 215 7 gusting 17 4.4
2019-Dec-05 07:16 218 7 gusting 15 4.4
2019-Dec-05 07:01 213 9 gusting 18 5.0
2019-Dec-05 06:45 225 7 gusting 14 5.0
2019-Dec-05 06:32 153 8 gusting 18 5.0
2019-Dec-05 06:16 233 6 gusting 15 5.0
2019-Dec-05 06:02 202 7 gusting 14 5.0
2019-Dec-05 05:46 220 7 gusting 19 5.0
2019-Dec-05 05:31 240 10 gusting 17 5.0
2019-Dec-05 05:15 229 7 gusting 16 5.6
2019-Dec-05 05:00 184 9 gusting 16 5.6
2019-Dec-05 04:45 207 8 gusting 17 5.6
2019-Dec-05 04:31 241 8 gusting 21 5.6
2019-Dec-05 04:16 211 6 gusting 17 5.6
2019-Dec-05 04:00 189 8 gusting 14 5.6
2019-Dec-05 03:45 171 7 gusting 16 5.6
2019-Dec-05 03:30 216 8 gusting 15 5.6
2019-Dec-05 03:15 236 6 gusting 17 5.6
2019-Dec-05 03:01 192 6 gusting 18 5.6
2019-Dec-05 02:45 182 7 gusting 19 5.6
2019-Dec-05 02:30 192 7 gusting 17 5.6
2019-Dec-05 02:15 241 8 gusting 17 5.6
2019-Dec-05 02:00 240 7 gusting 17 5.6
2019-Dec-05 01:45 186 9 gusting 21 5.6
2019-Dec-05 01:32 196 10 gusting 15 5.6
2019-Dec-05 01:16 175 5 gusting 19 5.6
2019-Dec-05 01:01 191 10 gusting 18 5.6
2019-Dec-05 00:47 272 9 gusting 19 5.6
2019-Dec-05 00:32 210 8 gusting 19 5.6
2019-Dec-05 00:16 205 10 gusting 19 5.0
2019-Dec-05 00:01 248 11 gusting 19 5.0
2019-Dec-04 23:46 252 6 gusting 15 5.0
2019-Dec-04 23:32 242 7 gusting 20 5.0
2019-Dec-04 23:16 210 8 gusting 17 5.0
2019-Dec-04 23:02 227 8 gusting 17 5.0
2019-Dec-04 22:46 231 6 gusting 19 5.0
2019-Dec-04 22:31 204 10 gusting 18 5.0
2019-Dec-04 22:16 227 9 gusting 22 5.0
2019-Dec-04 22:00 205 9 gusting 15 4.4
2019-Dec-04 21:46 232 8 gusting 19 5.0
2019-Dec-04 21:30 207 7 gusting 13 4.4
2019-Dec-04 21:16 232 7 gusting 20 4.4
2019-Dec-04 21:01
2019-Dec-04 20:45
2019-Dec-04 20:30
2019-Dec-04 20:15
2019-Dec-04 20:00
2019-Dec-04 19:45
2019-Dec-04 19:31
2019-Dec-04 19:16
2019-Dec-04 19:02 188 4 gusting 10 2.8
2019-Dec-04 18:46 170 4 gusting 9 2.2
2019-Dec-04 18:31 127 2 gusting 5 2.2
2019-Dec-04 18:18 124 2.2
2019-Dec-04 18:01 124 2.2
2019-Dec-04 17:46 134 1 gusting 5 2.2
2019-Dec-04 17:31 096 2.2
2019-Dec-04 17:16 081 0 gusting 6 2.8
2019-Dec-04 17:02 142 0 gusting 4 2.8
2019-Dec-04 16:46 130 0 gusting 5 2.8
2019-Dec-04 16:31 198 1 gusting 7 3.3
2019-Dec-04 16:16 165 3 gusting 7 2.8
2019-Dec-04 16:05 173 3 gusting 7 2.8
2019-Dec-04 15:46 164 4 gusting 6 2.2
2019-Dec-04 15:30 173 1 gusting 6 1.7
2019-Dec-04 15:16 182 1.1
2019-Dec-04 15:02 132 1.1
2019-Dec-04 14:46 132 1.7
2019-Dec-04 14:31 126 1.1
2019-Dec-04 14:15 121 1.1
2019-Dec-04 14:01 160 1.7
2019-Dec-04 13:46 157 1.7
2019-Dec-04 13:30 145 0 gusting 4 1.1
2019-Dec-04 13:16 130 0.6
2019-Dec-04 13:00 005 -0.0
2019-Dec-04 12:45 005 -0.0
2019-Dec-04 12:30 005 -0.0
2019-Dec-04 12:15 005 -0.0
2019-Dec-04 12:00 005 -0.0
2019-Dec-04 11:45 005 -0.0
2019-Dec-04 11:30 005 -0.0
2019-Dec-04 11:15 005 -0.0
2019-Dec-04 11:00 348 -0.6
2019-Dec-04 10:45 348 -0.6
2019-Dec-04 10:30 348 -0.6
2019-Dec-04 10:16 348 -0.6
2019-Dec-04 10:00 350 -1.1
2019-Dec-04 09:45 113 -1.1
2019-Dec-04 09:30 115 -1.1
2019-Dec-04 09:15 115 -1.1
2019-Dec-04 09:00 030 -1.7
2019-Dec-04 08:16 030 -1.7
2019-Dec-04 08:01 030 -1.7